Location: Bo?a Wola
(50.4192°N, 19.7966°E)
Time: 03:55:23
(UTC+00:00)

CZ-4C R/B - Pass Details

Date: 15 September 2024
Orbit: 519 x 1471 km, 63.4° (Epoch: 09 October)

Event Time Altitude Azimuth Distance (km) Brightness Sun altitude
Exits shadow 23:20:30 21° 60° (ENE) 1,704 4.1 -36.2°
Drops below altitude 10° 23:22:36 10° 51° (NE) 2,470 5.2 -36.1°
Sets 23:25:30 0° 45° (NE) 3,578 6.2 -36.0°
